• In United Kingdom
  • List of Countries
  • For 7 days
  • Water Temperature
  • Satellite Maps
  • Weather Map
  • Weather Widgets
  • user-avatar
    Login

    Hourly Weather Seli

    Today, 18 August, Friday

    Time Temperature Precipitation Wind Pressure Humidity
    00:00 +27°C° 0 mm 4 mps 745 mmHg 59%
    01:00 +27°C° 0 mm 4 mps 745 mmHg 59%
    02:00 +26°C° 0 mm 4 mps 745 mmHg 57%
    03:00 +26°C° 0 mm 5 mps 745 mmHg 58%
    04:00 +26°C° 0 mm 5 mps 745 mmHg 60%
    05:00 +26°C° 0 mm 5 mps 745 mmHg 61%
    06:00 +27°C° 0 mm 5 mps 745 mmHg 58%
    07:00 +28°C° 0 mm 6 mps 745 mmHg 56%
    08:00 +29°C° 0 mm 6 mps 746 mmHg 54%
    09:00 +30°C° 0 mm 6 mps 746 mmHg 51%
    10:00 +32°C° 0 mm 6 mps 746 mmHg 48%
    11:00 +33°C° 0 mm 7 mps 746 mmHg 45%
    12:00 +34°C° 0 mm 7 mps 746 mmHg 44%
    13:00 +34°C° 0 mm 7 mps 747 mmHg 44%
    14:00 +34°C° 0 mm 6 mps 747 mmHg 43%
    15:00 +34°C° 0 mm 6 mps 747 mmHg 44%
    16:00 +33°C° 0 mm 6 mps 747 mmHg 44%
    17:00 +33°C° 0 mm 6 mps 747 mmHg 45%
    18:00 +32°C° 0 mm 5 mps 747 mmHg 50%
    19:00 +29°C° 0 mm 5 mps 747 mmHg 54%
    20:00 +28°C° 0 mm 4 mps 747 mmHg 59%
    21:00 +28°C° 0 mm 4 mps 747 mmHg 59%
    22:00 +27°C° 0 mm 4 mps 747 mmHg 60%
    23:00 +27°C° 0 mm 3 mps 747 mmHg 61%

    Tomorrow, 19 August, Saturday

    Time Temperature Precipitation Wind Pressure Humidity
    00:00 +27°C° 0 mm 3 mps 747 mmHg 60%
    01:00 +27°C° 0 mm 3 mps 747 mmHg 58%
    02:00 +27°C° 0 mm 4 mps 747 mmHg 57%
    03:00 +27°C° 0 mm 4 mps 746 mmHg 57%
    04:00 +26°C° 0 mm 4 mps 746 mmHg 57%
    05:00 +26°C° 0 mm 4 mps 746 mmHg 56%
    06:00 +27°C° 0 mm 4 mps 746 mmHg 53%
    07:00 +29°C° 0 mm 4 mps 746 mmHg 50%
    08:00 +30°C° 0 mm 4 mps 747 mmHg 47%
    09:00 +32°C° 0 mm 4 mps 747 mmHg 44%
    10:00 +33°C° 0 mm 5 mps 747 mmHg 41%
    11:00 +34°C° 0 mm 5 mps 747 mmHg 37%
    12:00 +34°C° 0 mm 5 mps 747 mmHg 37%
    13:00 +35°C° 0 mm 5 mps 747 mmHg 36%
    14:00 +35°C° 0 mm 5 mps 747 mmHg 36%
    15:00 +35°C° 0 mm 5 mps 747 mmHg 36%
    16:00 +34°C° 0 mm 5 mps 747 mmHg 37%
    17:00 +34°C° 0 mm 4 mps 747 mmHg 38%
    18:00 +33°C° 0 mm 4 mps 747 mmHg 42%
    19:00 +30°C° 0 mm 4 mps 747 mmHg 46%
    20:00 +29°C° 0 mm 3 mps 747 mmHg 51%
    21:00 +28°C° 0 mm 3 mps 747 mmHg 52%
    22:00 +28°C° 0 mm 3 mps 747 mmHg 54%
    23:00 +27°C° 0 mm 3 mps 747 mmHg 55%

    Day after tomorrow, 20 August, Sunday

    Time Temperature Precipitation Wind Pressure Humidity
    00:00 +27°C° 0 mm 3 mps 747 mmHg 55%
    01:00 +27°C° 0 mm 3 mps 747 mmHg 54%
    02:00 +26°C° 0 mm 3 mps 747 mmHg 54%
    03:00 +26°C° 0 mm 3 mps 747 mmHg 55%
    04:00 +26°C° 0 mm 3 mps 746 mmHg 56%
    05:00 +26°C° 0 mm 3 mps 746 mmHg 57%
    06:00 +27°C° 0 mm 3 mps 746 mmHg 53%
    07:00 +28°C° 0 mm 3 mps 746 mmHg 49%
    08:00 +29°C° 0 mm 3 mps 747 mmHg 45%
    09:00 +31°C° 0 mm 3 mps 747 mmHg 43%
    10:00 +33°C° 0 mm 3 mps 747 mmHg 41%
    11:00 +34°C° 0 mm 3 mps 747 mmHg 38%
    12:00 +34°C° 0 mm 3 mps 747 mmHg 37%
    13:00 +34°C° 0 mm 4 mps 747 mmHg 36%
    14:00 +35°C° 0 mm 4 mps 747 mmHg 35%
    15:00 +35°C° 0 mm 4 mps 746 mmHg 35%
    16:00 +34°C° 0 mm 3 mps 746 mmHg 35%
    17:00 +34°C° 0 mm 3 mps 746 mmHg 35%
    18:00 +33°C° 0 mm 3 mps 746 mmHg 38%
    19:00 +31°C° 0 mm 3 mps 746 mmHg 40%
    20:00 +29°C° 0 mm 3 mps 746 mmHg 43%
    21:00 +29°C° 0 mm 3 mps 746 mmHg 44%
    22:00 +28°C° 0 mm 3 mps 746 mmHg 45%
    23:00 +27°C° 0 mm 3 mps 746 mmHg 46%

    21 August, Monday

    Time Temperature Precipitation Wind Pressure Humidity
    00:00 +27°C° 0 mm 3 mps 746 mmHg 46%
    01:00 +27°C° 0 mm 3 mps 746 mmHg 45%
    02:00 +27°C° 0 mm 3 mps 746 mmHg 45%
    03:00 +26°C° 0 mm 3 mps 745 mmHg 44%
    04:00 +26°C° 0 mm 3 mps 745 mmHg 44%
    05:00 +26°C° 0 mm 3 mps 745 mmHg 44%
    06:00 +27°C° 0 mm 3 mps 745 mmHg 41%
    07:00 +29°C° 0 mm 3 mps 746 mmHg 38%
    08:00 +30°C° 0 mm 3 mps 746 mmHg 35%
    09:00 +31°C° 0 mm 3 mps 746 mmHg 32%
    10:00 +33°C° 0 mm 4 mps 746 mmHg 29%
    11:00 +34°C° 0 mm 4 mps 746 mmHg 27%
    12:00 +34°C° 0 mm 4 mps 746 mmHg 29%
    13:00 +35°C° 0 mm 5 mps 746 mmHg 31%
    14:00 +35°C° 0 mm 5 mps 746 mmHg 33%
    15:00 +34°C° 0 mm 5 mps 746 mmHg 36%
    16:00 +34°C° 0 mm 5 mps 746 mmHg 39%
    17:00 +34°C° 0 mm 5 mps 746 mmHg 42%
    18:00 +33°C° 0 mm 4 mps 746 mmHg 46%
    19:00 +30°C° 0 mm 4 mps 746 mmHg 49%
    20:00 +29°C° 0 mm 3 mps 746 mmHg 53%
    21:00 +29°C° 0 mm 3 mps 746 mmHg 53%
    22:00 +28°C° 0 mm 3 mps 746 mmHg 52%
    23:00 +28°C° 0 mm 3 mps 747 mmHg 52%

    22 August, Tuesday

    Time Temperature Precipitation Wind Pressure Humidity
    00:00 +27°C° 0 mm 3 mps 746 mmHg 51%
    01:00 +27°C° 0 mm 3 mps 746 mmHg 51%
    02:00 +27°C° 0 mm 3 mps 746 mmHg 51%
    03:00 +27°C° 0 mm 3 mps 746 mmHg 50%
    04:00 +26°C° 0 mm 3 mps 746 mmHg 48%
    05:00 +26°C° 0 mm 3 mps 746 mmHg 47%
    06:00 +27°C° 0 mm 3 mps 746 mmHg 43%
    07:00 +29°C° 0 mm 2 mps 747 mmHg 39%
    08:00 +30°C° 0 mm 2 mps 747 mmHg 36%
    09:00 +31°C° 0 mm 3 mps 747 mmHg 34%
    10:00 +33°C° 0 mm 3 mps 747 mmHg 33%
    11:00 +34°C° 0 mm 3 mps 747 mmHg 32%
    12:00 +35°C° 0 mm 4 mps 747 mmHg 33%
    13:00 +35°C° 0 mm 4 mps 747 mmHg 34%
    14:00 +35°C° 0 mm 5 mps 747 mmHg 35%
    15:00 +34°C° 0 mm 5 mps 747 mmHg 37%
    16:00 +34°C° 0 mm 5 mps 747 mmHg 40%
    17:00 +34°C° 0 mm 5 mps 747 mmHg 42%
    18:00 +33°C° 0 mm 4 mps 747 mmHg 46%
    19:00 +32°C° 0 mm 4 mps 747 mmHg 49%
    20:00 +29°C° 0 mm 4 mps 747 mmHg 53%
    21:00 +29°C° 0 mm 4 mps 748 mmHg 54%
    22:00 +28°C° 0 mm 4 mps 748 mmHg 56%
    23:00 +27°C° 0 mm 4 mps 748 mmHg 58%

    23 August, Wednesday

    Time Temperature Precipitation Wind Pressure Humidity
    00:00 +27°C° 0 mm 4 mps 748 mmHg 59%
    01:00 +26°C° 0 mm 4 mps 748 mmHg 60%
    02:00 +26°C° 0 mm 4 mps 748 mmHg 61%
    03:00 +26°C° 0 mm 5 mps 748 mmHg 63%
    04:00 +26°C° 0 mm 5 mps 747 mmHg 66%
    05:00 +25°C° 0 mm 5 mps 747 mmHg 68%
    06:00 +26°C° 0 mm 5 mps 748 mmHg 63%
    07:00 +27°C° 0 mm 5 mps 748 mmHg 58%
    08:00 +28°C° 0 mm 6 mps 748 mmHg 53%
    09:00 +30°C° 0 mm 6 mps 748 mmHg 47%
    10:00 +32°C° 0 mm 6 mps 749 mmHg 40%
    11:00 +33°C° 0 mm 6 mps 749 mmHg 34%
    12:00 +34°C° 0 mm 6 mps 749 mmHg 30%
    13:00 +34°C° 0 mm 6 mps 749 mmHg 26%
    14:00 +35°C° 0 mm 6 mps 748 mmHg 22%
    15:00 +34°C° 0 mm 6 mps 748 mmHg 24%
    16:00 +33°C° 0 mm 6 mps 748 mmHg 26%
    17:00 +33°C° 0 mm 6 mps 748 mmHg 28%
    18:00 +30°C° 0 mm 5 mps 748 mmHg 35%
    19:00 +28°C° 0 mm 5 mps 748 mmHg 41%
    20:00 +27°C° 0 mm 5 mps 748 mmHg 47%
    21:00 +26°C° 0 mm 4 mps 748 mmHg 48%
    22:00 +26°C° 0 mm 4 mps 748 mmHg 49%
    23:00 +25°C° 0 mm 4 mps 749 mmHg 50%
    Show more